#datetime,building,power
2021-07-29T00:00:00,mbh,409.00
2021-07-29T00:01:00,mbh,406.00
2021-07-29T00:02:00,mbh,402.00
2021-07-29T00:03:00,mbh,410.00
2021-07-29T00:04:00,mbh,379.00
2021-07-29T00:05:00,mbh,385.00
2021-07-29T00:06:00,mbh,371.00
2021-07-29T00:07:00,mbh,374.00
2021-07-29T00:08:00,mbh,383.00
2021-07-29T00:09:00,mbh,383.00
2021-07-29T00:10:00,mbh,395.00
2021-07-29T00:11:00,mbh,382.00
2021-07-29T00:12:00,mbh,407.00
2021-07-29T00:13:00,mbh,392.00
2021-07-29T00:14:00,mbh,389.00
2021-07-29T00:15:00,mbh,392.00
2021-07-29T00:16:00,mbh,376.00
2021-07-29T00:17:00,mbh,369.00
2021-07-29T00:18:00,mbh,380.00
2021-07-29T00:19:00,mbh,381.00
2021-07-29T00:20:00,mbh,384.00
2021-07-29T00:21:00,mbh,384.00
2021-07-29T00:22:00,mbh,377.00
2021-07-29T00:23:00,mbh,375.00
2021-07-29T00:24:00,mbh,388.00
2021-07-29T00:25:00,mbh,404.00
2021-07-29T00:26:00,mbh,405.00
2021-07-29T00:27:00,mbh,381.00
2021-07-29T00:28:00,mbh,421.00
2021-07-29T00:29:00,mbh,369.00
2021-07-29T00:30:00,mbh,375.00
2021-07-29T00:31:00,mbh,392.00
2021-07-29T00:32:00,mbh,377.00
2021-07-29T00:33:00,mbh,377.00
2021-07-29T00:34:00,mbh,378.00
2021-07-29T00:35:00,mbh,411.00
2021-07-29T00:36:00,mbh,381.00
2021-07-29T00:37:00,mbh,403.00
2021-07-29T00:38:00,mbh,376.00
2021-07-29T00:39:00,mbh,396.00
2021-07-29T00:40:00,mbh,429.00
2021-07-29T00:41:00,mbh,386.00
2021-07-29T00:42:00,mbh,376.00
2021-07-29T00:43:00,mbh,379.00
2021-07-29T00:44:00,mbh,407.00
2021-07-29T00:45:00,mbh,394.00
2021-07-29T00:46:00,mbh,367.00
2021-07-29T00:47:00,mbh,372.00
2021-07-29T00:48:00,mbh,378.00
2021-07-29T00:49:00,mbh,379.00
2021-07-29T00:50:00,mbh,392.00
2021-07-29T00:51:00,mbh,388.00
2021-07-29T00:52:00,mbh,358.00
2021-07-29T00:53:00,mbh,367.00
2021-07-29T00:54:00,mbh,392.00
2021-07-29T00:55:00,mbh,382.00
2021-07-29T00:56:00,mbh,397.00
2021-07-29T00:57:00,mbh,376.00
2021-07-29T00:58:00,mbh,378.00
2021-07-29T00:59:00,mbh,378.00
2021-07-29T01:00:00,mbh,380.00
2021-07-29T01:01:00,mbh,416.00
2021-07-29T01:02:00,mbh,365.00
2021-07-29T01:03:00,mbh,369.00
2021-07-29T01:04:00,mbh,375.00
2021-07-29T01:05:00,mbh,401.00
2021-07-29T01:06:00,mbh,421.00
2021-07-29T01:07:00,mbh,377.00
2021-07-29T01:08:00,mbh,383.00
2021-07-29T01:09:00,mbh,366.00
2021-07-29T01:10:00,mbh,379.00
2021-07-29T01:11:00,mbh,430.00
2021-07-29T01:12:00,mbh,403.00
2021-07-29T01:13:00,mbh,378.00
2021-07-29T01:14:00,mbh,396.00
2021-07-29T01:15:00,mbh,406.00
2021-07-29T01:16:00,mbh,425.00
2021-07-29T01:17:00,mbh,374.00
2021-07-29T01:18:00,mbh,373.00
2021-07-29T01:19:00,mbh,372.00
2021-07-29T01:20:00,mbh,378.00
2021-07-29T01:21:00,mbh,402.00
2021-07-29T01:22:00,mbh,382.00
2021-07-29T01:23:00,mbh,383.00
2021-07-29T01:24:00,mbh,360.00
2021-07-29T01:25:00,mbh,371.00
2021-07-29T01:26:00,mbh,372.00
2021-07-29T01:27:00,mbh,403.00
2021-07-29T01:28:00,mbh,381.00
2021-07-29T01:29:00,mbh,404.00
2021-07-29T01:30:00,mbh,382.00
2021-07-29T01:31:00,mbh,383.00
2021-07-29T01:32:00,mbh,369.00
2021-07-29T01:33:00,mbh,397.00
2021-07-29T01:34:00,mbh,371.00
2021-07-29T01:35:00,mbh,375.00
2021-07-29T01:36:00,mbh,369.00
2021-07-29T01:37:00,mbh,382.00
2021-07-29T01:38:00,mbh,399.00
2021-07-29T01:39:00,mbh,382.00
2021-07-29T01:40:00,mbh,363.00
2021-07-29T01:41:00,mbh,375.00
2021-07-29T01:42:00,mbh,379.00
2021-07-29T01:43:00,mbh,400.00
2021-07-29T01:44:00,mbh,398.00
2021-07-29T01:45:00,mbh,373.00
2021-07-29T01:46:00,mbh,374.00
2021-07-29T01:47:00,mbh,355.00
2021-07-29T01:48:00,mbh,394.00
2021-07-29T01:49:00,mbh,398.00
2021-07-29T01:50:00,mbh,380.00
2021-07-29T01:51:00,mbh,379.00
2021-07-29T01:52:00,mbh,379.00
2021-07-29T01:53:00,mbh,380.00
2021-07-29T01:54:00,mbh,398.00
2021-07-29T01:55:00,mbh,361.00
2021-07-29T01:56:00,mbh,367.00
2021-07-29T01:57:00,mbh,358.00
2021-07-29T01:58:00,mbh,392.00
2021-07-29T01:59:00,mbh,370.00
2021-07-29T02:00:00,mbh,380.00
2021-07-29T02:01:00,mbh,376.00
2021-07-29T02:02:00,mbh,391.00
2021-07-29T02:03:00,mbh,380.00
2021-07-29T02:04:00,mbh,415.00
2021-07-29T02:05:00,mbh,364.00
2021-07-29T02:06:00,mbh,376.00
2021-07-29T02:07:00,mbh,369.00
2021-07-29T02:08:00,mbh,373.00
2021-07-29T02:09:00,mbh,391.00
2021-07-29T02:10:00,mbh,378.00
2021-07-29T02:11:00,mbh,362.00
2021-07-29T02:12:00,mbh,369.00
2021-07-29T02:13:00,mbh,356.00
2021-07-29T02:14:00,mbh,412.00
2021-07-29T02:15:00,mbh,398.00
2021-07-29T02:16:00,mbh,380.00
2021-07-29T02:17:00,mbh,396.00
2021-07-29T02:18:00,mbh,373.00
2021-07-29T02:19:00,mbh,362.00
2021-07-29T02:20:00,mbh,372.00
2021-07-29T02:21:00,mbh,379.00
2021-07-29T02:22:00,mbh,404.00
2021-07-29T02:23:00,mbh,376.00
2021-07-29T02:24:00,mbh,420.00
2021-07-29T02:25:00,mbh,382.00
2021-07-29T02:26:00,mbh,363.00
2021-07-29T02:27:00,mbh,373.00
2021-07-29T02:28:00,mbh,364.00
2021-07-29T02:29:00,mbh,416.00
2021-07-29T02:30:00,mbh,369.00
2021-07-29T02:31:00,mbh,384.00
2021-07-29T02:32:00,mbh,389.00
2021-07-29T02:33:00,mbh,377.00
2021-07-29T02:34:00,mbh,411.00
2021-07-29T02:35:00,mbh,372.00
2021-07-29T02:36:00,mbh,371.00
2021-07-29T02:37:00,mbh,379.00
2021-07-29T02:38:00,mbh,402.00
2021-07-29T02:39:00,mbh,377.00
2021-07-29T02:40:00,mbh,423.00
2021-07-29T02:41:00,mbh,375.00
2021-07-29T02:42:00,mbh,405.00
2021-07-29T02:43:00,mbh,365.00
2021-07-29T02:44:00,mbh,394.00
2021-07-29T02:45:00,mbh,366.00
2021-07-29T02:46:00,mbh,417.00
2021-07-29T02:47:00,mbh,367.00
2021-07-29T02:48:00,mbh,377.00
2021-07-29T02:49:00,mbh,405.00
2021-07-29T02:50:00,mbh,354.00
2021-07-29T02:51:00,mbh,385.00
2021-07-29T02:52:00,mbh,387.00
2021-07-29T02:53:00,mbh,389.00
2021-07-29T02:54:00,mbh,399.00
2021-07-29T02:55:00,mbh,379.00
2021-07-29T02:56:00,mbh,423.00
2021-07-29T02:57:00,mbh,387.00
2021-07-29T02:58:00,mbh,388.00
2021-07-29T02:59:00,mbh,371.00
2021-07-29T03:00:00,mbh,373.00
2021-07-29T03:01:00,mbh,369.00
2021-07-29T03:02:00,mbh,414.00
2021-07-29T03:03:00,mbh,367.00
2021-07-29T03:04:00,mbh,377.00
2021-07-29T03:05:00,mbh,377.00
2021-07-29T03:06:00,mbh,376.00
2021-07-29T03:07:00,mbh,389.00
2021-07-29T03:08:00,mbh,388.00
2021-07-29T03:09:00,mbh,375.00
2021-07-29T03:10:00,mbh,379.00
2021-07-29T03:11:00,mbh,375.00
2021-07-29T03:12:00,mbh,395.00
2021-07-29T03:13:00,mbh,397.00
2021-07-29T03:14:00,mbh,386.00
2021-07-29T03:15:00,mbh,369.00
2021-07-29T03:16:00,mbh,366.00
2021-07-29T03:17:00,mbh,395.00
2021-07-29T03:18:00,mbh,377.00
2021-07-29T03:19:00,mbh,377.00
2021-07-29T03:20:00,mbh,371.00
2021-07-29T03:21:00,mbh,381.00
2021-07-29T03:22:00,mbh,363.00
2021-07-29T03:23:00,mbh,406.00
2021-07-29T03:24:00,mbh,389.00
2021-07-29T03:25:00,mbh,374.00
2021-07-29T03:26:00,mbh,400.00
2021-07-29T03:27:00,mbh,373.00
2021-07-29T03:28:00,mbh,373.00
2021-07-29T03:29:00,mbh,394.00
2021-07-29T03:30:00,mbh,393.00
2021-07-29T03:31:00,mbh,371.00
2021-07-29T03:32:00,mbh,371.00
2021-07-29T03:33:00,mbh,371.00
2021-07-29T03:34:00,mbh,396.00
2021-07-29T03:35:00,mbh,376.00
2021-07-29T03:36:00,mbh,372.00
2021-07-29T03:37:00,mbh,380.00
2021-07-29T03:38:00,mbh,370.00
2021-07-29T03:39:00,mbh,372.00
2021-07-29T03:40:00,mbh,392.00
2021-07-29T03:41:00,mbh,378.00
2021-07-29T03:42:00,mbh,379.00
2021-07-29T03:43:00,mbh,377.00
2021-07-29T03:44:00,mbh,378.00
2021-07-29T03:45:00,mbh,371.00
2021-07-29T03:46:00,mbh,385.00
2021-07-29T03:47:00,mbh,373.00
2021-07-29T03:48:00,mbh,374.00
2021-07-29T03:49:00,mbh,391.00
2021-07-29T03:50:00,mbh,402.00
2021-07-29T03:51:00,mbh,381.00
2021-07-29T03:52:00,mbh,379.00
2021-07-29T03:53:00,mbh,374.00
2021-07-29T03:54:00,mbh,374.00
2021-07-29T03:55:00,mbh,366.00
2021-07-29T03:56:00,mbh,366.00
2021-07-29T03:57:00,mbh,376.00
2021-07-29T03:58:00,mbh,380.00
2021-07-29T03:59:00,mbh,376.00
2021-07-29T04:00:00,mbh,423.00
2021-07-29T04:01:00,mbh,382.00
2021-07-29T04:02:00,mbh,368.00
2021-07-29T04:03:00,mbh,367.00
2021-07-29T04:04:00,mbh,367.00
2021-07-29T04:05:00,mbh,371.00
2021-07-29T04:06:00,mbh,384.00
2021-07-29T04:07:00,mbh,375.00
2021-07-29T04:08:00,mbh,371.00
2021-07-29T04:09:00,mbh,356.00
2021-07-29T04:10:00,mbh,356.00
2021-07-29T04:11:00,mbh,383.00
2021-07-29T04:12:00,mbh,373.00
2021-07-29T04:13:00,mbh,375.00
2021-07-29T04:14:00,mbh,399.00
2021-07-29T04:15:00,mbh,372.00
2021-07-29T04:16:00,mbh,394.00
2021-07-29T04:17:00,mbh,357.00
2021-07-29T04:18:00,mbh,366.00
2021-07-29T04:19:00,mbh,392.00
2021-07-29T04:20:00,mbh,401.00
2021-07-29T04:21:00,mbh,417.00
2021-07-29T04:22:00,mbh,378.00
2021-07-29T04:23:00,mbh,400.00
2021-07-29T04:24:00,mbh,380.00
2021-07-29T04:25:00,mbh,365.00
2021-07-29T04:26:00,mbh,407.00
2021-07-29T04:27:00,mbh,376.00
2021-07-29T04:28:00,mbh,378.00
2021-07-29T04:29:00,mbh,405.00
2021-07-29T04:30:00,mbh,383.00
2021-07-29T04:31:00,mbh,406.00
2021-07-29T04:32:00,mbh,386.00
2021-07-29T04:33:00,mbh,372.00
2021-07-29T04:34:00,mbh,377.00
2021-07-29T04:35:00,mbh,379.00
2021-07-29T04:36:00,mbh,382.00
2021-07-29T04:37:00,mbh,394.00
2021-07-29T04:38:00,mbh,397.00
2021-07-29T04:39:00,mbh,373.00
2021-07-29T04:40:00,mbh,375.00
2021-07-29T04:41:00,mbh,384.00
2021-07-29T04:42:00,mbh,386.00
2021-07-29T04:43:00,mbh,356.00
2021-07-29T04:44:00,mbh,396.00
2021-07-29T04:45:00,mbh,381.00
2021-07-29T04:46:00,mbh,379.00
2021-07-29T04:47:00,mbh,424.00
2021-07-29T04:48:00,mbh,362.00
2021-07-29T04:49:00,mbh,368.00
2021-07-29T04:50:00,mbh,363.00
2021-07-29T04:51:00,mbh,373.00
2021-07-29T04:52:00,mbh,416.00
2021-07-29T04:53:00,mbh,373.00
2021-07-29T04:54:00,mbh,381.00
2021-07-29T04:55:00,mbh,378.00
2021-07-29T04:56:00,mbh,365.00
2021-07-29T04:57:00,mbh,389.00
2021-07-29T04:58:00,mbh,367.00
2021-07-29T04:59:00,mbh,360.00
2021-07-29T05:00:00,mbh,370.00
2021-07-29T05:01:00,mbh,366.00
2021-07-29T05:02:00,mbh,371.00
2021-07-29T05:03:00,mbh,400.00
2021-07-29T05:04:00,mbh,362.00
2021-07-29T05:05:00,mbh,389.00
2021-07-29T05:06:00,mbh,369.00
2021-07-29T05:07:00,mbh,378.00
2021-07-29T05:08:00,mbh,413.00
2021-07-29T05:09:00,mbh,373.00
2021-07-29T05:10:00,mbh,371.00
2021-07-29T05:11:00,mbh,371.00
2021-07-29T05:12:00,mbh,386.00
2021-07-29T05:13:00,mbh,388.00
2021-07-29T05:14:00,mbh,365.00
2021-07-29T05:15:00,mbh,377.00
2021-07-29T05:16:00,mbh,374.00
2021-07-29T05:17:00,mbh,377.00
2021-07-29T05:18:00,mbh,398.00
2021-07-29T05:19:00,mbh,401.00
2021-07-29T05:20:00,mbh,385.00
2021-07-29T05:21:00,mbh,394.00
2021-07-29T05:22:00,mbh,302.00
2021-07-29T05:23:00,mbh,313.00
2021-07-29T05:24:00,mbh,319.00
2021-07-29T05:25:00,mbh,302.00
2021-07-29T05:26:00,mbh,297.00
2021-07-29T05:27:00,mbh,301.00
2021-07-29T05:28:00,mbh,296.00
2021-07-29T05:29:00,mbh,313.00
2021-07-29T05:30:00,mbh,291.00
2021-07-29T05:31:00,mbh,298.00
2021-07-29T05:32:00,mbh,287.00
2021-07-29T05:33:00,mbh,295.00
2021-07-29T05:34:00,mbh,316.00
2021-07-29T05:35:00,mbh,289.00
2021-07-29T05:36:00,mbh,287.00
2021-07-29T05:37:00,mbh,294.00
2021-07-29T05:38:00,mbh,321.00
2021-07-29T05:39:00,mbh,342.00
2021-07-29T05:40:00,mbh,314.00
2021-07-29T05:41:00,mbh,295.00
2021-07-29T05:42:00,mbh,303.00
2021-07-29T05:43:00,mbh,282.00
2021-07-29T05:44:00,mbh,291.00
2021-07-29T05:45:00,mbh,340.00
2021-07-29T05:46:00,mbh,301.00
2021-07-29T05:47:00,mbh,300.00
2021-07-29T05:48:00,mbh,297.00
2021-07-29T05:49:00,mbh,293.00
2021-07-29T05:50:00,mbh,332.00
2021-07-29T05:51:00,mbh,295.00
2021-07-29T05:52:00,mbh,316.00
2021-07-29T05:53:00,mbh,287.00
2021-07-29T05:54:00,mbh,297.00
2021-07-29T05:55:00,mbh,320.00
2021-07-29T05:56:00,mbh,344.00
2021-07-29T05:57:00,mbh,318.00
2021-07-29T05:58:00,mbh,287.00
2021-07-29T05:59:00,mbh,319.00
2021-07-29T06:00:00,mbh,298.00
2021-07-29T06:01:00,mbh,346.00
2021-07-29T06:02:00,mbh,301.00
2021-07-29T06:03:00,mbh,318.00
2021-07-29T06:04:00,mbh,291.00
2021-07-29T06:05:00,mbh,313.00
2021-07-29T06:06:00,mbh,318.00
2021-07-29T06:07:00,mbh,320.00
2021-07-29T06:08:00,mbh,300.00
2021-07-29T06:09:00,mbh,300.00
2021-07-29T06:10:00,mbh,323.00
2021-07-29T06:11:00,mbh,302.00
2021-07-29T06:12:00,mbh,320.00
2021-07-29T06:13:00,mbh,286.00
2021-07-29T06:14:00,mbh,290.00
2021-07-29T06:15:00,mbh,291.00
2021-07-29T06:16:00,mbh,345.00
2021-07-29T06:17:00,mbh,320.00
2021-07-29T06:18:00,mbh,303.00
2021-07-29T06:19:00,mbh,292.00
2021-07-29T06:20:00,mbh,308.00
2021-07-29T06:21:00,mbh,290.00
2021-07-29T06:22:00,mbh,338.00
2021-07-29T06:23:00,mbh,317.00
2021-07-29T06:24:00,mbh,299.00
2021-07-29T06:25:00,mbh,302.00
2021-07-29T06:26:00,mbh,299.00
2021-07-29T06:27:00,mbh,304.00
2021-07-29T06:28:00,mbh,310.00
2021-07-29T06:29:00,mbh,318.00
2021-07-29T06:30:00,mbh,297.00
2021-07-29T06:31:00,mbh,297.00
2021-07-29T06:32:00,mbh,305.00
2021-07-29T06:33:00,mbh,332.00
2021-07-29T06:34:00,mbh,357.00
2021-07-29T06:35:00,mbh,334.00
2021-07-29T06:36:00,mbh,284.00
2021-07-29T06:37:00,mbh,287.00
2021-07-29T06:38:00,mbh,287.00
2021-07-29T06:39:00,mbh,287.00
2021-07-29T06:40:00,mbh,325.00
2021-07-29T06:41:00,mbh,301.00
2021-07-29T06:42:00,mbh,297.00
2021-07-29T06:43:00,mbh,302.00
2021-07-29T06:44:00,mbh,291.00
2021-07-29T06:45:00,mbh,335.00
2021-07-29T06:46:00,mbh,338.00
2021-07-29T06:47:00,mbh,325.00
2021-07-29T06:48:00,mbh,298.00
2021-07-29T06:49:00,mbh,307.00
2021-07-29T06:50:00,mbh,324.00
2021-07-29T06:51:00,mbh,306.00
2021-07-29T06:52:00,mbh,292.00
2021-07-29T06:53:00,mbh,313.00
2021-07-29T06:54:00,mbh,304.00
2021-07-29T06:55:00,mbh,311.00
2021-07-29T06:56:00,mbh,339.00
2021-07-29T06:57:00,mbh,363.00
2021-07-29T06:58:00,mbh,324.00
2021-07-29T06:59:00,mbh,333.00
2021-07-29T07:00:00,mbh,315.00
2021-07-29T07:01:00,mbh,325.00
2021-07-29T07:02:00,mbh,377.00
2021-07-29T07:03:00,mbh,383.00
2021-07-29T07:04:00,mbh,404.00
2021-07-29T07:05:00,mbh,416.00
2021-07-29T07:06:00,mbh,455.00
2021-07-29T07:07:00,mbh,439.00
2021-07-29T07:08:00,mbh,425.00
2021-07-29T07:09:00,mbh,457.00
2021-07-29T07:10:00,mbh,439.00
2021-07-29T07:11:00,mbh,447.00
2021-07-29T07:12:00,mbh,465.00
2021-07-29T07:13:00,mbh,537.00
2021-07-29T07:14:00,mbh,535.00
2021-07-29T07:15:00,mbh,506.00
2021-07-29T07:16:00,mbh,493.00
2021-07-29T07:17:00,mbh,499.00
2021-07-29T07:18:00,mbh,530.00
2021-07-29T07:19:00,mbh,537.00
2021-07-29T07:20:00,mbh,512.00
2021-07-29T07:21:00,mbh,509.00
2021-07-29T07:22:00,mbh,515.00
2021-07-29T07:23:00,mbh,502.00
2021-07-29T07:24:00,mbh,530.00
2021-07-29T07:25:00,mbh,541.00
2021-07-29T07:26:00,mbh,510.00
2021-07-29T07:27:00,mbh,508.00
2021-07-29T07:28:00,mbh,506.00
2021-07-29T07:29:00,mbh,550.00
2021-07-29T07:30:00,mbh,523.00
2021-07-29T07:31:00,mbh,506.00
2021-07-29T07:32:00,mbh,514.00
2021-07-29T07:33:00,mbh,517.00
2021-07-29T07:34:00,mbh,524.00
2021-07-29T07:35:00,mbh,577.00
2021-07-29T07:36:00,mbh,525.00
2021-07-29T07:37:00,mbh,516.00
2021-07-29T07:38:00,mbh,526.00
2021-07-29T07:39:00,mbh,507.00
2021-07-29T07:40:00,mbh,543.00
2021-07-29T07:41:00,mbh,547.00
2021-07-29T07:42:00,mbh,526.00
2021-07-29T07:43:00,mbh,554.00
2021-07-29T07:44:00,mbh,548.00
2021-07-29T07:45:00,mbh,533.00
2021-07-29T07:46:00,mbh,554.00
2021-07-29T07:47:00,mbh,529.00
2021-07-29T07:48:00,mbh,521.00
2021-07-29T07:49:00,mbh,528.00
2021-07-29T07:50:00,mbh,528.00
2021-07-29T07:51:00,mbh,550.00
2021-07-29T07:52:00,mbh,538.00
2021-07-29T07:53:00,mbh,542.00
2021-07-29T07:54:00,mbh,543.00
2021-07-29T07:55:00,mbh,558.00
2021-07-29T07:56:00,mbh,555.00
2021-07-29T07:57:00,mbh,580.00
2021-07-29T07:58:00,mbh,557.00
2021-07-29T07:59:00,mbh,550.00
2021-07-29T08:00:00,mbh,542.00
2021-07-29T08:01:00,mbh,559.00
2021-07-29T08:02:00,mbh,581.00
2021-07-29T08:03:00,mbh,582.00
2021-07-29T08:04:00,mbh,615.00
2021-07-29T08:05:00,mbh,623.00
2021-07-29T08:06:00,mbh,659.00
2021-07-29T08:07:00,mbh,651.00
2021-07-29T08:08:00,mbh,634.00
2021-07-29T08:09:00,mbh,624.00
2021-07-29T08:10:00,mbh,609.00
2021-07-29T08:11:00,mbh,583.00
2021-07-29T08:12:00,mbh,613.00
2021-07-29T08:13:00,mbh,610.00
2021-07-29T08:14:00,mbh,609.00
2021-07-29T08:15:00,mbh,634.00
2021-07-29T08:16:00,mbh,612.00
2021-07-29T08:17:00,mbh,629.00
2021-07-29T08:18:00,mbh,596.00
2021-07-29T08:19:00,mbh,635.00
2021-07-29T08:20:00,mbh,604.00
2021-07-29T08:21:00,mbh,601.00
2021-07-29T08:22:00,mbh,593.00
2021-07-29T08:23:00,mbh,650.00
2021-07-29T08:24:00,mbh,628.00
2021-07-29T08:25:00,mbh,643.00
2021-07-29T08:26:00,mbh,635.00
2021-07-29T08:27:00,mbh,607.00
2021-07-29T08:28:00,mbh,628.00
2021-07-29T08:29:00,mbh,612.00
2021-07-29T08:30:00,mbh,617.00
2021-07-29T08:31:00,mbh,605.00
2021-07-29T08:32:00,mbh,593.00
2021-07-29T08:33:00,mbh,616.00
2021-07-29T08:34:00,mbh,605.00
2021-07-29T08:35:00,mbh,616.00
2021-07-29T08:36:00,mbh,611.00
2021-07-29T08:37:00,mbh,653.00
2021-07-29T08:38:00,mbh,610.00
2021-07-29T08:39:00,mbh,631.00
2021-07-29T08:40:00,mbh,611.00
2021-07-29T08:41:00,mbh,614.00
2021-07-29T08:42:00,mbh,662.00
2021-07-29T08:43:00,mbh,611.00
2021-07-29T08:44:00,mbh,652.00
2021-07-29T08:45:00,mbh,613.00
2021-07-29T08:46:00,mbh,647.00
2021-07-29T08:47:00,mbh,609.00
2021-07-29T08:48:00,mbh,580.00
2021-07-29T08:49:00,mbh,607.00
2021-07-29T08:50:00,mbh,608.00
2021-07-29T08:51:00,mbh,603.00
2021-07-29T08:52:00,mbh,617.00
2021-07-29T08:53:00,mbh,656.00
2021-07-29T08:54:00,mbh,631.00
2021-07-29T08:55:00,mbh,634.00
2021-07-29T08:56:00,mbh,617.00
2021-07-29T08:57:00,mbh,633.00
2021-07-29T08:58:00,mbh,634.00
2021-07-29T08:59:00,mbh,659.00
2021-07-29T09:00:00,mbh,632.00
2021-07-29T09:01:00,mbh,654.00
2021-07-29T09:02:00,mbh,617.00
2021-07-29T09:03:00,mbh,629.00
2021-07-29T09:04:00,mbh,659.00
2021-07-29T09:05:00,mbh,619.00
2021-07-29T09:06:00,mbh,642.00
2021-07-29T09:07:00,mbh,654.00
2021-07-29T09:08:00,mbh,615.00
2021-07-29T09:09:00,mbh,644.00
2021-07-29T09:10:00,mbh,631.00
2021-07-29T09:11:00,mbh,630.00
2021-07-29T09:12:00,mbh,651.00
2021-07-29T09:13:00,mbh,642.00
2021-07-29T09:14:00,mbh,622.00
2021-07-29T09:15:00,mbh,601.00
2021-07-29T09:16:00,mbh,642.00
2021-07-29T09:17:00,mbh,641.00
2021-07-29T09:18:00,mbh,646.00
2021-07-29T09:19:00,mbh,637.00
2021-07-29T09:20:00,mbh,637.00
2021-07-29T09:21:00,mbh,623.00
2021-07-29T09:22:00,mbh,634.00
2021-07-29T09:23:00,mbh,618.00
2021-07-29T09:24:00,mbh,654.00
2021-07-29T09:25:00,mbh,640.00
2021-07-29T09:26:00,mbh,648.00
2021-07-29T09:27:00,mbh,643.00
2021-07-29T09:28:00,mbh,646.00
2021-07-29T09:29:00,mbh,687.00
2021-07-29T09:30:00,mbh,665.00
2021-07-29T09:31:00,mbh,647.00
2021-07-29T09:32:00,mbh,635.00
2021-07-29T09:33:00,mbh,621.00
2021-07-29T09:34:00,mbh,644.00
2021-07-29T09:35:00,mbh,646.00
2021-07-29T09:36:00,mbh,666.00
2021-07-29T09:37:00,mbh,631.00
2021-07-29T09:38:00,mbh,656.00
2021-07-29T09:39:00,mbh,651.00
2021-07-29T09:40:00,mbh,619.00
2021-07-29T09:41:00,mbh,660.00
2021-07-29T09:42:00,mbh,638.00
2021-07-29T09:43:00,mbh,639.00
2021-07-29T09:44:00,mbh,668.00
2021-07-29T09:45:00,mbh,630.00
2021-07-29T09:46:00,mbh,628.00
2021-07-29T09:47:00,mbh,630.00
2021-07-29T09:48:00,mbh,646.00
2021-07-29T09:49:00,mbh,659.00
2021-07-29T09:50:00,mbh,623.00
2021-07-29T09:51:00,mbh,640.00
2021-07-29T09:52:00,mbh,653.00
2021-07-29T09:53:00,mbh,661.00
2021-07-29T09:54:00,mbh,653.00
2021-07-29T09:55:00,mbh,631.00
2021-07-29T09:56:00,mbh,662.00
2021-07-29T09:57:00,mbh,663.00
2021-07-29T09:58:00,mbh,664.00
2021-07-29T09:59:00,mbh,636.00
2021-07-29T10:00:00,mbh,636.00
2021-07-29T10:01:00,mbh,679.00
2021-07-29T10:02:00,mbh,663.00
2021-07-29T10:03:00,mbh,668.00
2021-07-29T10:04:00,mbh,643.00
2021-07-29T10:05:00,mbh,642.00
2021-07-29T10:06:00,mbh,658.00
2021-07-29T10:07:00,mbh,674.00
2021-07-29T10:08:00,mbh,652.00
2021-07-29T10:09:00,mbh,648.00
2021-07-29T10:10:00,mbh,672.00
2021-07-29T10:11:00,mbh,652.00
2021-07-29T10:12:00,mbh,656.00
2021-07-29T10:13:00,mbh,651.00
2021-07-29T10:14:00,mbh,654.00
2021-07-29T10:15:00,mbh,632.00
2021-07-29T10:16:00,mbh,669.00
2021-07-29T10:17:00,mbh,669.00
2021-07-29T10:18:00,mbh,641.00
2021-07-29T10:19:00,mbh,653.00
2021-07-29T10:20:00,mbh,638.00
2021-07-29T10:21:00,mbh,639.00
2021-07-29T10:22:00,mbh,651.00
2021-07-29T10:23:00,mbh,669.00
2021-07-29T10:24:00,mbh,689.00
2021-07-29T15:33:14,mbh,0.00
2021-07-29T15:34:00,mbh,232.00
2021-07-29T15:35:00,mbh,310.00
2021-07-29T15:36:00,mbh,313.00
2021-07-29T15:37:00,mbh,294.00
2021-07-29T15:38:00,mbh,291.00
2021-07-29T15:39:00,mbh,289.00
2021-07-29T15:40:00,mbh,293.00
2021-07-29T15:41:00,mbh,337.00
2021-07-29T15:42:00,mbh,317.00
2021-07-29T15:43:00,mbh,316.00
2021-07-29T15:44:00,mbh,318.00
2021-07-29T15:45:00,mbh,312.00
2021-07-29T15:46:00,mbh,312.00
2021-07-29T15:47:00,mbh,311.00
2021-07-29T15:48:00,mbh,311.00
2021-07-29T15:49:00,mbh,297.00
2021-07-29T15:50:00,mbh,271.00
2021-07-29T15:51:00,mbh,266.00
2021-07-29T15:52:00,mbh,272.00
2021-07-29T15:53:00,mbh,273.00
2021-07-29T15:54:00,mbh,353.00
2021-07-29T15:55:00,mbh,339.00
2021-07-29T15:56:00,mbh,374.00
2021-07-29T15:57:00,mbh,424.00
2021-07-29T15:58:00,mbh,421.00
2021-07-29T15:59:00,mbh,442.00
2021-07-29T16:00:00,mbh,445.00
2021-07-29T16:01:00,mbh,451.00
2021-07-29T16:02:00,mbh,527.00
2021-07-29T16:03:00,mbh,496.00
2021-07-29T16:04:00,mbh,490.00
2021-07-29T16:05:00,mbh,531.00
2021-07-29T16:06:00,mbh,463.00
2021-07-29T16:07:00,mbh,460.00
2021-07-29T16:08:00,mbh,471.00
2021-07-29T16:09:00,mbh,513.00
2021-07-29T16:10:00,mbh,563.00
2021-07-29T16:11:00,mbh,504.00
2021-07-29T16:12:00,mbh,484.00
2021-07-29T16:13:00,mbh,515.00
2021-07-29T16:14:00,mbh,511.00
2021-07-29T16:15:00,mbh,570.00
2021-07-29T16:16:00,mbh,578.00
2021-07-29T16:17:00,mbh,607.00
2021-07-29T16:18:00,mbh,621.00
2021-07-29T16:19:00,mbh,624.00
2021-07-29T16:20:00,mbh,608.00
2021-07-29T16:21:00,mbh,584.00
2021-07-29T16:22:00,mbh,630.00
2021-07-29T16:23:00,mbh,631.00
2021-07-29T16:24:00,mbh,650.00
2021-07-29T16:25:00,mbh,621.00
2021-07-29T16:26:00,mbh,620.00
2021-07-29T16:27:00,mbh,599.00
2021-07-29T16:28:00,mbh,612.00
2021-07-29T16:29:00,mbh,636.00
2021-07-29T16:30:00,mbh,586.00
2021-07-29T16:31:00,mbh,587.00
2021-07-29T16:32:00,mbh,635.00
2021-07-29T16:33:00,mbh,619.00
2021-07-29T16:34:00,mbh,591.00
2021-07-29T16:35:00,mbh,539.00
2021-07-29T16:36:00,mbh,500.00
2021-07-29T16:37:00,mbh,493.00
2021-07-29T16:38:00,mbh,546.00
2021-07-29T16:39:00,mbh,509.00
2021-07-29T16:40:00,mbh,511.00
2021-07-29T16:41:00,mbh,536.00
2021-07-29T16:42:00,mbh,541.00
2021-07-29T16:43:00,mbh,534.00
2021-07-29T16:44:00,mbh,510.00
2021-07-29T16:45:00,mbh,512.00
2021-07-29T16:46:00,mbh,519.00
2021-07-29T16:47:00,mbh,507.00
2021-07-29T16:48:00,mbh,578.00
2021-07-29T16:49:00,mbh,537.00
2021-07-29T16:50:00,mbh,569.00
2021-07-29T16:51:00,mbh,537.00
2021-07-29T16:52:00,mbh,572.00
2021-07-29T16:53:00,mbh,508.00
2021-07-29T16:54:00,mbh,506.00
2021-07-29T16:55:00,mbh,529.00
2021-07-29T16:56:00,mbh,530.00
2021-07-29T16:57:00,mbh,529.00
2021-07-29T16:58:00,mbh,552.00
2021-07-29T16:59:00,mbh,532.00
2021-07-29T17:00:00,mbh,534.00
2021-07-29T17:01:00,mbh,551.00
2021-07-29T17:02:00,mbh,551.00
2021-07-29T17:03:00,mbh,545.00
2021-07-29T17:04:00,mbh,536.00
2021-07-29T17:05:00,mbh,507.00
2021-07-29T17:06:00,mbh,533.00
2021-07-29T17:07:00,mbh,537.00
2021-07-29T17:08:00,mbh,531.00
2021-07-29T17:09:00,mbh,524.00
2021-07-29T17:10:00,mbh,571.00
2021-07-29T17:11:00,mbh,559.00
2021-07-29T17:12:00,mbh,561.00
2021-07-29T17:13:00,mbh,545.00
2021-07-29T17:14:00,mbh,566.00
2021-07-29T17:15:00,mbh,574.00
2021-07-29T17:16:00,mbh,594.00
2021-07-29T17:17:00,mbh,590.00
2021-07-29T17:18:00,mbh,597.00
2021-07-29T17:19:00,mbh,571.00
2021-07-29T17:20:00,mbh,578.00
2021-07-29T17:21:00,mbh,578.00
2021-07-29T17:22:00,mbh,575.00
2021-07-29T17:23:00,mbh,623.00
2021-07-29T17:24:00,mbh,605.00
2021-07-29T17:25:00,mbh,593.00
2021-07-29T17:26:00,mbh,593.00
2021-07-29T17:27:00,mbh,595.00
2021-07-29T17:28:00,mbh,606.00
2021-07-29T17:29:00,mbh,579.00
2021-07-29T17:30:00,mbh,588.00
2021-07-29T17:31:00,mbh,589.00
2021-07-29T17:32:00,mbh,584.00
2021-07-29T17:33:00,mbh,642.00
2021-07-29T17:34:00,mbh,634.00
2021-07-29T17:35:00,mbh,615.00
2021-07-29T17:36:00,mbh,508.00
2021-07-29T17:37:00,mbh,501.00
2021-07-29T17:38:00,mbh,501.00
2021-07-29T17:39:00,mbh,526.00
2021-07-29T17:40:00,mbh,512.00
2021-07-29T17:41:00,mbh,511.00
2021-07-29T17:42:00,mbh,511.00
2021-07-29T17:43:00,mbh,513.00
2021-07-29T17:44:00,mbh,523.00
2021-07-29T17:45:00,mbh,499.00
2021-07-29T17:46:00,mbh,507.00
2021-07-29T17:47:00,mbh,515.00
2021-07-29T17:48:00,mbh,530.00
2021-07-29T17:49:00,mbh,513.00
2021-07-29T17:50:00,mbh,556.00
2021-07-29T17:51:00,mbh,565.00
2021-07-29T17:52:00,mbh,549.00
2021-07-29T17:53:00,mbh,560.00
2021-07-29T17:54:00,mbh,554.00
2021-07-29T17:55:00,mbh,553.00
2021-07-29T17:56:00,mbh,540.00
2021-07-29T17:57:00,mbh,556.00
2021-07-29T17:58:00,mbh,550.00
2021-07-29T17:59:00,mbh,560.00
2021-07-29T18:00:00,mbh,602.00